Back to catalog

STARLINK-1443

AliveCommunicationsVLEO
NORAD 45660·PAYLOAD·🇺🇸 United States

Launched Jun 4, 2020 from Cape Canaveral Space Force Station

Loading…

Next Passes (next 24 hours)

TLE

FreshSource: CelesTrak SupGP

Epoch: Sep 14, 2026, 12:56 UTC

1 45660C 20035D   26257.53937500  .00054442  00000+0  13382-2 0  2579
2 45660  53.1296 263.6970 0004244  31.2002 298.4812 15.40036141    14

Track STARLINK-1443 in real time with AllMySat

Download on the App Store